Flag for Canada Weather past 2 weeks in Medicine Hat, Alberta, Canada

Now
86 °F

Sunny.


Feels Like: 84 °F
Forecast: 56 / 92 °F
Wind: 2 mph from Southeast

Location: Medicine Hat

Current Time: Jul 29, 2014 at 1:01:07 PM

Latest Report: Jul 29, 2014 at 12:00 PM


Visibility: 30 mi

Pressure: 30.13 "Hg

Humidity: 31%

Dew point: 52 °F

Location of Medicine HatLocation

Historic Weather in Medicine Hat — Graph

°F

Medicine Hat temperature yesterday

Maximum temperature yesterday: 91 °F (at 4:00 PM)
Minimum temperature yesterday: 57 °F (at 5:00 AM)
Average temperature yesterday: 74 °F

Past Weeks' High & Low Weather Summary

 TemperatureHumidityPressure
High93 °F (Jul 17, 4:00 PM)100% (Jul 27, 5:00 AM)30.29 "Hg (Jul 27, 5:00 AM)
Low46 °F (Jul 27, 5:00 AM)17% (Jul 28, 6:00 PM)29.49 "Hg (Jul 17, 7:00 PM)
Average68 °F59%29.93 "Hg
* Reported Jul 14 11:00 AM — Jul 29 11:00 AM, Medicine Hat, Weather by CustomWeather, © 2014

Note: Actual official high and low records may vary slightly from our data, if they occured in-between our weather recording intervals... More about our weather records

Advertising

Medicine Hat weather history for previous 24 hours

 ConditionsComfort  
Time TempWeatherWind HumidityBarometerVisibility
11:00 AM
Jul 29
81 °FSunny.2 mph39%30.14 "Hg30 mi
10:00 AM75 °FSunny.6 mph44%30.15 "Hg30 mi
9:00 AM70 °FSunny.3 mph60%30.15 "Hg30 mi
8:00 AM64 °FSunny.2 mph73%30.16 "Hg30 mi
7:00 AM59 °FSunny.3 mph82%30.15 "Hg30 mi
6:00 AM55 °FClear.3 mph88%30.14 "Hg9 mi
5:00 AM57 °FClear.6 mph88%30.13 "Hg9 mi
4:00 AM59 °FClear.8 mph77%30.11 "Hg9 mi
3:00 AM63 °FClear.6 mph68%30.11 "Hg9 mi
2:00 AM64 °FClear.7 mph60%30.11 "Hg9 mi
1:00 AM64 °FClear.8 mph64%30.11 "Hg9 mi
12:00 AM66 °FClear.6 mph60%30.12 "Hg9 mi
11:00 PM
Jul 28
72 °FClear.6 mph47%30.11 "Hg9 mi
10:00 PM77 °FSunny.5 mph39%30.10 "Hg9 mi
9:00 PM81 °FScattered clouds.7 mph34%30.10 "Hg30 mi
8:00 PM84 °FBroken clouds.5 mph27%30.09 "Hg30 mi
7:00 PM90 °FPartly sunny.8 mph20%30.09 "Hg30 mi
6:00 PM91 °FBroken clouds.7 mph17%30.11 "Hg30 mi
5:00 PM90 °FPartly sunny.8 mph20%30.12 "Hg30 mi
4:00 PM91 °FPartly sunny.6 mph18%30.13 "Hg30 mi
2:00 PM88 °FPartly sunny.No wind24%30.16 "Hg30 mi
1:00 PM88 °FPartly sunny.2 mph25%30.17 "Hg30 mi
Weather by CustomWeather, © 2014

See weather overviewHow to use our weather pages